sat.trackr.live / text

‹ back to catalog

STARLINK-3678

NORAD 52121 · 2022-029AK

PAYLOAD ACTIVE UNKNOWN

§ Identity

Operator
Country
US
Launch date
2022-03-19
Launch site
AFETR
Launch vehicle
Mass (kg)
RCS (m²)

Purposes: comms

External: N2YO · Heavens-Above · Gunter

§ Orbital elements

Epoch: 2026-09-19T16:13:32.130912Z

Period
93.79 min
Inclination
53.1598°
Eccentricity
0.0001402
Mean motion
15.35408840 rev/d
Perigee alt
458.7 km
Apogee alt
460.7 km
Semi-major
6,837.8 km
B*
1.6295e-5
RAAN
271.5715°
Arg perigee
83.5192°
Mean anomaly
276.5971°
Rev number
25,029

§ Raw data

STARLINK-36781 52121U 22029AK  26262.67606633  .00000188  00000+0  16295-4 0  99942 52121  53.1598 271.5715 0001402  83.5192 276.5971 15.35408840250290

JSON: /api/v1/satellites/52121 · /tle

For live sub-satellite position, see the globe view (requires WebGL).

§ Visibility from observer

Set your observer location to see the next 7 days of passes ≥ 10°. The values pass through the URL so the page stays shareable.

No JS? Fill the form by hand. The geolocation button needs JavaScript.